Location: Unspecified
(51.0950°N, 12.9690°E)
Time: 14:25:20
(UTC+00:00)

ATLAS 3B R/B - Pass Details

Date: 28 October 2021
Orbit: 989 x 1206 km, 63.8° (Epoch: 25 November)

Event Time Altitude Azimuth Distance (km) Brightness Sun altitude
Rises 16:23:38 0° 256° (WSW) 3,747 8.5 -6.0°
Reaches altitude 10° 16:26:22 10° 264° (W) 2,821 6.7 -6.4°
Maximum altitude 16:32:37 41° 333° (NNW) 1,496 3.6 -7.4°
Drops below altitude 10° 16:39:12 10° 43° (NE) 2,970 4.6 -8.4°
Enters shadow 16:40:46 - 47° (NE) 3,494 4.9 -8.6°
